"read_dt","SO2 (ppb)","flags","PMT voltage (V)","lamp voltage (V)","lamp intensity (Hz)","internal temp (C)","react chamber temp (C)","sample flow (l/min)","pres (mmHg)","SO2 bkg (ppb)","SO2 coefficient"
2016-11-16 00:00:00,1671E-3,5C000000,-0724,0831,12090,029.9,045.5,0.434,741.3,01.18,0.508
2016-11-16 00:01:00,1560E-3,5C000000,-0724,0830,11984,029.9,045.5,0.434,741.3,01.18,0.508
2016-11-16 00:02:00,1499E-3,5C000000,-0724,0831,12048,030.0,045.5,0.434,741.2,01.18,0.508
2016-11-16 00:03:00,1513E-3,5C000000,-0724,0830,12085,029.9,045.5,0.434,741.2,01.18,0.508
2016-11-16 00:04:00,1708E-3,5C000000,-0724,0830,12093,029.9,045.5,0.434,741.2,01.18,0.508
2016-11-16 00:05:00,1580E-3,5C000000,-0724,0830,12145,029.9,045.5,0.434,741.2,01.18,0.508
2016-11-16 00:06:00,1691E-3,5C000000,-0724,0831,12239,029.9,045.5,0.434,741.3,01.18,0.508
2016-11-16 00:07:00,1557E-3,5C000000,-0724,0830,12122,029.9,045.5,0.434,741.3,01.18,0.508
2016-11-16 00:08:00,1637E-3,5C000000,-0724,0830,12040,029.9,045.5,0.434,741.2,01.18,0.508
2016-11-16 00:09:00,1526E-3,5C000000,-0724,0830,12097,029.9,045.5,0.434,741.1,01.18,0.508
2016-11-16 00:10:00,1703E-3,5C000000,-0724,0831,12150,029.9,045.5,0.434,741.1,01.18,0.508
2016-11-16 00:11:00,1624E-3,5C000000,-0724,0831,12194,029.9,045.5,0.434,741.1,01.18,0.508
2016-11-16 00:12:00,1520E-3,5C000000,-0724,0830,12239,029.9,045.5,0.434,741.1,01.18,0.508
2016-11-16 00:13:00,1571E-3,5C000000,-0724,0830,12160,029.9,045.5,0.434,741.1,01.18,0.508
2016-11-16 00:14:00,1515E-3,5C000000,-0724,0830,12060,029.9,045.5,0.434,741.2,01.18,0.508
2016-11-16 00:15:00,1481E-3,5C000000,-0724,0830,12061,029.9,045.5,0.434,741.1,01.18,0.508
2016-11-16 00:16:00,1656E-3,5C000000,-0724,0831,11989,029.9,045.5,0.434,741.2,01.18,0.508
2016-11-16 00:17:00,1679E-3,5C000000,-0724,0830,12101,029.9,045.5,0.435,741.1,01.18,0.508
2016-11-16 00:18:00,1655E-3,5C000000,-0724,0830,12150,029.9,045.5,0.435,741.1,01.18,0.508
2016-11-16 00:19:00,1519E-3,5C000000,-0724,0830,12143,029.9,045.5,0.434,741.1,01.18,0.508
2016-11-16 00:20:00,1504E-3,5C000000,-0724,0830,12040,029.9,045.5,0.434,741.1,01.18,0.508
2016-11-16 00:21:00,1702E-3,5C000000,-0724,0830,12076,029.9,045.5,0.435,741.1,01.18,0.508
2016-11-16 00:22:00,1612E-3,5C000000,-0724,0831,12218,029.9,045.5,0.434,741.1,01.18,0.508
2016-11-16 00:23:00,1574E-3,5C000000,-0724,0831,12110,029.9,045.5,0.434,741.2,01.18,0.508
2016-11-16 00:24:00,1525E-3,5C000000,-0724,0831,12061,029.9,045.5,0.434,741.1,01.18,0.508
2016-11-16 00:25:00,1558E-3,5C000000,-0724,0831,12071,029.9,045.5,0.434,741.1,01.18,0.508
2016-11-16 00:26:00,1618E-3,5C000000,-0724,0830,12214,029.9,045.5,0.434,741.0,01.18,0.508
2016-11-16 00:27:00,1697E-3,5C000000,-0724,0831,12069,029.9,045.5,0.434,741.0,01.18,0.508
2016-11-16 00:28:00,1626E-3,5C000000,-0724,0831,12101,029.9,045.5,0.434,741.1,01.18,0.508
2016-11-16 00:29:00,1620E-3,5C000000,-0724,0830,12062,029.9,045.5,0.434,741.2,01.18,0.508
2016-11-16 00:30:00,1545E-3,5C000000,-0724,0831,12089,029.9,045.5,0.434,741.1,01.18,0.508
2016-11-16 00:31:00,1614E-3,5C000000,-0724,0830,12288,029.9,045.5,0.435,741.2,01.18,0.508
2016-11-16 00:32:00,1524E-3,5C000000,-0724,0830,12018,029.9,045.5,0.434,741.2,01.18,0.508
2016-11-16 00:33:00,1474E-3,5C000000,-0724,0830,12045,029.9,045.5,0.434,741.2,01.18,0.508
2016-11-16 00:34:00,1548E-3,5C000000,-0724,0830,12058,029.9,045.5,0.434,741.2,01.18,0.508
2016-11-16 00:35:00,1723E-3,5C000000,-0724,0830,12123,029.9,045.5,0.435,741.1,01.18,0.508
2016-11-16 00:36:00,1584E-3,5C000000,-0724,0830,12084,029.9,045.5,0.434,741.1,01.18,0.508
2016-11-16 00:37:00,1575E-3,5C000000,-0724,0830,12204,029.9,045.5,0.434,741.1,01.18,0.508
2016-11-16 00:38:00,1580E-3,5C000000,-0724,0829,12237,029.9,045.5,0.434,741.1,01.18,0.508
2016-11-16 00:39:00,1540E-3,5C000000,-0724,0831,11955,029.9,045.5,0.434,741.0,01.18,0.508
2016-11-16 00:40:00,1530E-3,5C000000,-0724,0830,12064,029.9,045.5,0.434,741.1,01.18,0.508
2016-11-16 00:41:00,1591E-3,5C000000,-0724,0831,12061,029.9,045.5,0.434,741.0,01.18,0.508
2016-11-16 00:42:00,1470E-3,5C000000,-0724,0830,12268,029.9,045.5,0.434,741.0,01.18,0.508
2016-11-16 00:43:00,1497E-3,5C000000,-0724,0830,12122,029.9,045.5,0.434,741.1,01.18,0.508
2016-11-16 00:44:00,1509E-3,5C000000,-0724,0830,12092,029.9,045.5,0.434,741.1,01.18,0.508
2016-11-16 00:45:00,1590E-3,5C000000,-0724,0830,12204,029.9,045.5,0.434,741.1,01.18,0.508
2016-11-16 00:46:00,1585E-3,5C000000,-0724,0831,12261,029.9,045.5,0.435,741.1,01.18,0.508
2016-11-16 00:47:00,1475E-3,5C000000,-0724,0830,12172,029.9,045.5,0.434,741.0,01.18,0.508
2016-11-16 00:48:00,1637E-3,5C000000,-0724,0830,12262,029.9,045.5,0.434,741.1,01.18,0.508
2016-11-16 00:49:00,1552E-3,5C000000,-0724,0830,12143,029.9,045.5,0.434,741.0,01.18,0.508
2016-11-16 00:50:00,1673E-3,5C000000,-0724,0830,12125,029.9,045.5,0.434,741.1,01.18,0.508
2016-11-16 00:51:00,1606E-3,5C000000,-0724,0831,12154,029.9,045.5,0.434,741.2,01.18,0.508
2016-11-16 00:52:00,1630E-3,5C000000,-0724,0831,12154,029.9,045.5,0.434,741.1,01.18,0.508
2016-11-16 00:53:00,1551E-3,5C000000,-0724,0830,12213,029.9,045.5,0.434,741.1,01.18,0.508
2016-11-16 00:54:00,1627E-3,5C000000,-0724,0830,12190,029.9,045.5,0.435,741.2,01.18,0.508
2016-11-16 00:55:00,1721E-3,5C000000,-0724,0830,12136,029.9,045.5,0.434,741.1,01.18,0.508
2016-11-16 00:56:00,1516E-3,5C000000,-0724,0830,12068,029.9,045.5,0.434,741.1,01.18,0.508
2016-11-16 00:57:00,1506E-3,5C000000,-0724,0830,12184,029.9,045.5,0.434,741.1,01.18,0.508
2016-11-16 00:58:00,1493E-3,5C000000,-0724,0831,12080,029.9,045.5,0.435,741.1,01.18,0.508
2016-11-16 00:59:00,1631E-3,5C000000,-0724,0829,12105,029.9,045.5,0.434,741.1,01.18,0.508
2016-11-16 01:00:00,1543E-3,5C000000,-0724,0830,12157,029.9,045.5,0.434,741.1,01.18,0.508
2016-11-16 01:01:00,1500E-3,5C000000,-0724,0829,12071,029.9,045.5,0.434,741.1,01.18,0.508
2016-11-16 01:02:00,1619E-3,5C000000,-0724,0830,12030,029.9,045.5,0.434,741.1,01.18,0.508
2016-11-16 01:03:00,1572E-3,5C000000,-0724,0831,12091,029.9,045.5,0.434,741.0,01.18,0.508
2016-11-16 01:04:00,1738E-3,5C000000,-0724,0830,11998,029.9,045.5,0.434,741.1,01.18,0.508
2016-11-16 01:05:00,1569E-3,5C000000,-0724,0830,12213,029.9,045.5,0.434,741.1,01.18,0.508
2016-11-16 01:06:00,1511E-3,5C000000,-0724,0830,12193,029.9,045.5,0.435,741.1,01.18,0.508
2016-11-16 01:07:00,1617E-3,5C000000,-0724,0831,12263,029.9,045.5,0.434,741.1,01.18,0.508
2016-11-16 01:08:00,1551E-3,5C000000,-0724,0831,12203,029.9,045.5,0.434,741.1,01.18,0.508
2016-11-16 01:09:00,1651E-3,5C000000,-0724,0830,12161,029.9,045.5,0.434,741.1,01.18,0.508
2016-11-16 01:10:00,1680E-3,5C000000,-0724,0831,12146,029.9,045.5,0.435,741.1,01.18,0.508
2016-11-16 01:11:00,1597E-3,5C000000,-0724,0829,12299,029.9,045.5,0.434,741.1,01.18,0.508
2016-11-16 01:12:00,1705E-3,5C000000,-0724,0830,12006,029.9,045.5,0.434,741.1,01.18,0.508
2016-11-16 01:13:00,1570E-3,5C000000,-0724,0829,12098,029.9,045.5,0.434,741.1,01.18,0.508
2016-11-16 01:14:00,1601E-3,5C000000,-0724,0831,12197,029.9,045.5,0.435,741.0,01.18,0.508
2016-11-16 01:15:00,1471E-3,5C000000,-0724,0830,12085,029.9,045.5,0.434,741.1,01.18,0.508
2016-11-16 01:16:00,1632E-3,5C000000,-0724,0830,12281,029.9,045.5,0.434,741.0,01.18,0.508
2016-11-16 01:17:00,1502E-3,5C000000,-0724,0830,11951,029.9,045.5,0.434,741.0,01.18,0.508
2016-11-16 01:18:00,1509E-3,5C000000,-0724,0830,12027,029.9,045.5,0.434,741.0,01.18,0.508
2016-11-16 01:19:00,1615E-3,5C000000,-0724,0830,12183,029.9,045.5,0.434,741.0,01.18,0.508
2016-11-16 01:20:00,1554E-3,5C000000,-0724,0830,12063,029.9,045.5,0.434,741.0,01.18,0.508
2016-11-16 01:21:00,1533E-3,5C000000,-0724,0830,12037,029.9,045.5,0.434,740.9,01.18,0.508
2016-11-16 01:22:00,1445E-3,5C000000,-0724,0831,12123,029.9,045.5,0.434,741.0,01.18,0.508
2016-11-16 01:23:00,1686E-3,5C000000,-0724,0831,12249,029.9,045.5,0.434,741.0,01.18,0.508
2016-11-16 01:24:00,1393E-3,5C000000,-0724,0829,12055,029.9,045.5,0.434,741.0,01.18,0.508
2016-11-16 01:25:00,1603E-3,5C000000,-0724,0829,11971,029.9,045.5,0.434,741.0,01.18,0.508
2016-11-16 01:26:00,1582E-3,5C000000,-0724,0831,12189,029.9,045.5,0.434,741.0,01.18,0.508
2016-11-16 01:27:00,1626E-3,5C000000,-0724,0831,12107,029.9,045.5,0.434,741.0,01.18,0.508
2016-11-16 01:28:00,1433E-3,5C000000,-0724,0830,12181,029.9,045.5,0.434,740.9,01.18,0.508
2016-11-16 01:29:00,1528E-3,5C000000,-0724,0830,12264,029.9,045.5,0.434,740.9,01.18,0.508
2016-11-16 01:30:00,1618E-3,5C000000,-0724,0830,12128,029.9,045.5,0.434,740.9,01.18,0.508
2016-11-16 01:31:00,1537E-3,5C000000,-0724,0829,11040,029.9,045.5,0.434,741.0,01.18,0.508
2016-11-16 01:32:00,1681E-3,5C000000,-0724,0830,12134,029.9,045.5,0.434,740.9,01.18,0.508
2016-11-16 01:33:00,1619E-3,5C000000,-0724,0830,12030,029.9,045.5,0.435,740.8,01.18,0.508
2016-11-16 01:34:00,1649E-3,5C000000,-0724,0831,12275,029.9,045.5,0.434,740.9,01.18,0.508
2016-11-16 01:35:00,1596E-3,5C000000,-0724,0831,11947,029.9,045.5,0.434,740.8,01.18,0.508
2016-11-16 01:36:00,1630E-3,5C000000,-0724,0831,12283,029.9,045.5,0.434,740.9,01.18,0.508
2016-11-16 01:37:00,1667E-3,5C000000,-0724,0831,12128,029.9,045.5,0.434,740.7,01.18,0.508
2016-11-16 01:38:00,1623E-3,5C000000,-0724,0829,12124,029.9,045.5,0.434,740.9,01.18,0.508
2016-11-16 01:39:00,1389E-3,5C000000,-0724,0830,12050,030.0,045.5,0.434,740.9,01.18,0.508
2016-11-16 01:40:00,1587E-3,5C000000,-0724,0831,12123,029.9,045.5,0.434,740.7,01.18,0.508
2016-11-16 01:41:00,1720E-3,5C000000,-0724,0831,12248,029.9,045.5,0.434,741.0,01.18,0.508
2016-11-16 01:42:00,1547E-3,5C000000,-0724,0830,12041,029.9,045.5,0.434,740.9,01.18,0.508
2016-11-16 01:43:00,1761E-3,5C000000,-0724,0829,12112,029.9,045.5,0.434,741.0,01.18,0.508
2016-11-16 01:44:00,1525E-3,5C000000,-0724,0831,12123,029.9,045.5,0.434,741.0,01.18,0.508
2016-11-16 01:45:00,1511E-3,5C000000,-0724,0829,11958,029.9,045.5,0.434,741.0,01.18,0.508
2016-11-16 01:46:00,1517E-3,5C000000,-0724,0830,12172,029.9,045.5,0.434,741.0,01.18,0.508
2016-11-16 01:47:00,1496E-3,5C000000,-0724,0831,12243,029.9,045.5,0.434,741.0,01.18,0.508
2016-11-16 01:48:00,1635E-3,5C000000,-0724,0831,12077,029.9,045.5,0.434,741.1,01.18,0.508
2016-11-16 01:49:00,1555E-3,5C000000,-0724,0831,12052,029.9,045.5,0.434,741.0,01.18,0.508
2016-11-16 01:50:00,1573E-3,5C000000,-0724,0830,12246,029.9,045.5,0.434,741.0,01.18,0.508
2016-11-16 01:51:00,1473E-3,5C000000,-0724,0830,12262,030.0,045.5,0.434,741.0,01.18,0.508
2016-11-16 01:52:00,1537E-3,5C000000,-0724,0831,10951,029.9,045.5,0.434,741.0,01.18,0.508
2016-11-16 01:53:00,1666E-3,5C000000,-0724,0829,12083,030.0,045.5,0.434,741.1,01.18,0.508
2016-11-16 01:54:00,1533E-3,5C000000,-0724,0830,12125,029.9,045.5,0.434,741.0,01.18,0.508
2016-11-16 01:55:00,1587E-3,5C000000,-0724,0829,12169,029.9,045.5,0.434,741.0,01.18,0.508
2016-11-16 01:56:00,1795E-3,5C000000,-0724,0829,12305,030.0,045.5,0.434,741.0,01.18,0.508
2016-11-16 01:57:00,1695E-3,5C000000,-0724,0830,12210,030.0,045.5,0.434,741.1,01.18,0.508
2016-11-16 01:58:00,1592E-3,5C000000,-0724,0829,12102,029.9,045.5,0.434,741.0,01.18,0.508
2016-11-16 01:59:00,1583E-3,5C000000,-0724,0828,12193,029.9,045.5,0.434,741.0,01.18,0.508
2016-11-16 02:00:00,1590E-3,5C000000,-0724,0830,12183,029.9,045.5,0.434,740.9,01.18,0.508
2016-11-16 02:01:00,1563E-3,5C000000,-0724,0830,12319,029.9,045.5,0.434,741.0,01.18,0.508
2016-11-16 02:02:00,1611E-3,5C000000,-0724,0831,12158,029.9,045.5,0.434,740.8,01.18,0.508
2016-11-16 02:03:00,1568E-3,5C000000,-0724,0830,12026,030.0,045.5,0.434,740.9,01.18,0.508
2016-11-16 02:04:00,1504E-3,5C000000,-0724,0830,12214,030.0,045.5,0.434,740.9,01.18,0.508
2016-11-16 02:05:00,1591E-3,5C000000,-0724,0831,12238,029.9,045.5,0.434,740.9,01.18,0.508
2016-11-16 02:06:00,1545E-3,5C000000,-0724,0829,11960,030.0,045.5,0.434,740.9,01.18,0.508
2016-11-16 02:07:00,1511E-3,5C000000,-0724,0829,12106,030.0,045.5,0.434,741.0,01.18,0.508
2016-11-16 02:08:00,1480E-3,5C000000,-0724,0829,12210,030.0,045.5,0.434,740.9,01.18,0.508
2016-11-16 02:09:00,1559E-3,5C000000,-0724,0830,12267,030.0,045.5,0.434,740.7,01.18,0.508
2016-11-16 02:10:00,1561E-3,5C000000,-0724,0832,12207,030.0,045.5,0.434,740.8,01.18,0.508
2016-11-16 02:11:00,1528E-3,5C000000,-0724,0829,12225,030.0,045.5,0.434,740.7,01.18,0.508
2016-11-16 02:12:00,1656E-3,5C000000,-0724,0829,12375,030.0,045.5,0.434,740.6,01.18,0.508
2016-11-16 02:13:00,1575E-3,5C000000,-0724,0831,10921,030.0,045.5,0.434,740.9,01.18,0.508
2016-11-16 02:14:00,1617E-3,5C000000,-0724,0830,12247,030.0,045.5,0.434,740.9,01.18,0.508
2016-11-16 02:15:00,1526E-3,5C000000,-0724,0830,12235,030.0,045.5,0.434,740.8,01.18,0.508
2016-11-16 02:16:00,1550E-3,5C000000,-0724,0839,11385,030.0,045.5,0.434,740.9,01.18,0.508
2016-11-16 02:17:00,1552E-3,5C000000,-0724,0829,12111,030.0,045.5,0.434,740.9,01.18,0.508
2016-11-16 02:18:00,1548E-3,5C000000,-0724,0831,12120,030.0,045.5,0.434,740.9,01.18,0.508
2016-11-16 02:19:00,1606E-3,5C000000,-0724,0830,9941,030.0,045.5,0.434,740.9,01.18,0.508
2016-11-16 02:20:00,1530E-3,5C000000,-0724,0829,12267,030.0,045.5,0.434,740.9,01.18,0.508
2016-11-16 02:21:00,1410E-3,5C000000,-0724,0830,11132,030.0,045.5,0.434,740.9,01.18,0.508
2016-11-16 02:22:00,1594E-3,5C000000,-0724,0828,12240,030.0,045.5,0.434,740.7,01.18,0.508
2016-11-16 02:23:00,1647E-3,5C000000,-0724,0830,12247,030.0,045.5,0.434,740.8,01.18,0.508
2016-11-16 02:24:00,1506E-3,5C000000,-0724,0828,12209,030.0,045.5,0.434,740.8,01.18,0.508
2016-11-16 02:25:00,1577E-3,5C000000,-0724,0829,12187,029.9,045.5,0.434,740.6,01.18,0.508
2016-11-16 02:26:00,1595E-3,5C000010,-0724,0830,11191,030.0,045.5,0.433,740.6,01.18,0.508
2016-11-16 02:27:00,1525E-3,5C000000,-0724,0830,12198,030.0,045.5,0.434,740.9,01.18,0.508
2016-11-16 02:28:00,1462E-3,5C000000,-0724,0842,12637,030.0,045.5,0.434,740.8,01.18,0.508
2016-11-16 02:29:00,1502E-3,5C000000,-0724,0835,11167,030.0,045.5,0.434,740.9,01.18,0.508
2016-11-16 02:30:00,1462E-3,5C000000,-0724,0837,12468,030.0,045.5,0.434,740.7,01.18,0.508
2016-11-16 02:31:00,1541E-3,5C000000,-0724,0839,12729,030.0,045.5,0.434,740.7,01.18,0.508
2016-11-16 02:32:00,1484E-3,5C000000,-0724,0835,11410,030.0,045.5,0.434,740.8,01.18,0.508
2016-11-16 02:33:00,1487E-3,5C000000,-0724,0835,12338,030.0,045.5,0.433,740.6,01.18,0.508
2016-11-16 02:34:00,1538E-3,5C000000,-0724,0830,12261,030.0,045.5,0.434,740.6,01.18,0.508
2016-11-16 02:35:00,1504E-3,5C000000,-0724,0833,10958,030.0,045.5,0.434,740.6,01.18,0.508
2016-11-16 02:36:00,1558E-3,5C000000,-0724,0837,11261,030.0,045.5,0.434,740.6,01.18,0.508
2016-11-16 02:37:00,1462E-3,5C000000,-0724,0831,12334,030.0,045.5,0.434,740.7,01.18,0.508
2016-11-16 02:38:00,1568E-3,5C000000,-0724,0830,12108,030.0,045.5,0.434,740.6,01.18,0.508
2016-11-16 02:39:00,1450E-3,5C000000,-0724,0832,10033,030.0,045.5,0.434,740.6,01.18,0.508
2016-11-16 02:40:00,1678E-3,5C000000,-0724,0831,11109,030.0,045.5,0.434,740.6,01.18,0.508
2016-11-16 02:41:00,1557E-3,5C000000,-0724,0830,12196,030.0,045.5,0.434,740.6,01.18,0.508
2016-11-16 02:42:00,1484E-3,5C000000,-0724,0831,12421,030.0,045.5,0.434,740.6,01.18,0.508
2016-11-16 02:43:00,1566E-3,5C000000,-0724,0831,12349,030.0,045.5,0.434,740.6,01.18,0.508
2016-11-16 02:44:00,1689E-3,5C000000,-0724,0831,12052,030.0,045.5,0.434,740.6,01.18,0.508
2016-11-16 02:45:00,1453E-3,5C000000,-0724,0830,12019,030.0,045.5,0.434,740.6,01.18,0.508
2016-11-16 02:46:00,1590E-3,5C000000,-0724,0829,10839,030.0,045.5,0.434,740.6,01.18,0.508
2016-11-16 02:47:00,1431E-3,5C000000,-0724,0828,12320,030.0,045.5,0.434,740.6,01.18,0.508
2016-11-16 02:48:00,1651E-3,5C000000,-0724,0830,12007,030.0,045.5,0.434,740.6,01.18,0.508
2016-11-16 02:49:00,1621E-3,5C000000,-0724,0829,12236,030.0,045.5,0.434,740.6,01.18,0.508
2016-11-16 02:50:00,1703E-3,5C000000,-0724,0830,12325,030.0,045.5,0.434,740.6,01.18,0.508
2016-11-16 02:51:00,1504E-3,5C000000,-0724,0829,12233,030.0,045.5,0.434,740.6,01.18,0.508
2016-11-16 02:52:00,1593E-3,5C000000,-0724,0830,12223,030.0,045.5,0.433,740.6,01.18,0.508
2016-11-16 02:53:00,1640E-3,5C000000,-0724,0828,10005,030.0,045.5,0.434,740.6,01.18,0.508
2016-11-16 02:54:00,1584E-3,5C000000,-0724,0829,12183,030.0,045.5,0.434,740.6,01.18,0.508
2016-11-16 02:55:00,1590E-3,5C000000,-0724,0830,12212,030.0,045.5,0.433,740.6,01.18,0.508
2016-11-16 02:56:00,1505E-3,5C000000,-0724,0829,12213,030.0,045.5,0.434,740.6,01.18,0.508
2016-11-16 02:57:00,1575E-3,5C000000,-0724,0829,12328,030.0,045.5,0.434,740.6,01.18,0.508
2016-11-16 02:58:00,1607E-3,5C000000,-0724,0829,12326,030.0,045.5,0.434,740.6,01.18,0.508
2016-11-16 02:59:00,1522E-3,5C000000,-0724,0829,12222,030.0,045.5,0.434,740.6,01.18,0.508
2016-11-16 03:00:00,1662E-3,5C000000,-0724,0830,12119,030.0,045.5,0.434,740.6,01.18,0.508
2016-11-16 03:01:00,1505E-3,5C000000,-0724,0828,12328,030.0,045.5,0.434,740.6,01.18,0.508
2016-11-16 03:02:00,1523E-3,5C000000,-0724,0830,12260,030.0,045.5,0.434,740.6,01.18,0.508
2016-11-16 03:03:00,1674E-3,5C000000,-0724,0829,12201,030.0,045.5,0.434,740.6,01.18,0.508
2016-11-16 03:04:00,1572E-3,5C000000,-0724,0829,12105,030.0,045.5,0.434,740.6,01.18,0.508
2016-11-16 03:05:00,1523E-3,5C000000,-0724,0831,12234,030.0,045.5,0.434,740.6,01.18,0.508
2016-11-16 03:06:00,1589E-3,5C000000,-0724,0828,12107,030.0,045.5,0.433,740.6,01.18,0.508
2016-11-16 03:07:00,1475E-3,5C000000,-0724,0828,12175,030.0,045.5,0.434,740.6,01.18,0.508
2016-11-16 03:08:00,1543E-3,5C000000,-0724,0829,12185,030.0,045.5,0.434,740.6,01.18,0.508
2016-11-16 03:09:00,1595E-3,5C000000,-0724,0829,12396,030.0,045.5,0.433,740.6,01.18,0.508
2016-11-16 03:10:00,1547E-3,5C000000,-0724,0830,11059,030.0,045.5,0.434,740.6,01.18,0.508
2016-11-16 03:11:00,1495E-3,5C000000,-0724,0831,12003,030.0,045.5,0.434,740.6,01.18,0.508
2016-11-16 03:12:00,1463E-3,5C000000,-0724,0829,12221,030.0,045.5,0.434,740.6,01.18,0.508
2016-11-16 03:13:00,1508E-3,5C000000,-0724,0830,12150,030.0,045.5,0.433,740.6,01.18,0.508
2016-11-16 03:14:00,1575E-3,5C000000,-0724,0830,12213,030.0,045.5,0.434,740.6,01.18,0.508
2016-11-16 03:15:00,1503E-3,5C000000,-0724,0830,12157,030.0,045.5,0.434,740.6,01.18,0.508
2016-11-16 03:16:00,1636E-3,5C000000,-0724,0831,12177,030.0,045.5,0.433,740.6,01.18,0.508
2016-11-16 03:17:00,1447E-3,5C000000,-0724,0830,12364,030.0,045.5,0.434,740.6,01.18,0.508
2016-11-16 03:18:00,1386E-3,5C000000,-0724,0830,12196,030.0,045.5,0.434,740.5,01.18,0.508
2016-11-16 03:19:00,1659E-3,5C000000,-0724,0829,12163,030.0,045.5,0.433,740.6,01.18,0.508
2016-11-16 03:20:00,1652E-3,5C000000,-0724,0829,11043,030.0,045.5,0.434,740.6,01.18,0.508
2016-11-16 03:21:00,1670E-3,5C000000,-0724,0830,12163,030.0,045.5,0.434,740.6,01.18,0.508
2016-11-16 03:22:00,1700E-3,5C000000,-0724,0833,12026,030.0,045.5,0.433,740.6,01.18,0.508
2016-11-16 03:23:00,1567E-3,5C000000,-0724,0830,12142,030.0,045.5,0.433,740.6,01.18,0.508
2016-11-16 03:24:00,1532E-3,5C000000,-0724,0830,12207,030.0,045.5,0.434,740.6,01.18,0.508
2016-11-16 03:25:00,1544E-3,5C000000,-0724,0828,11986,030.0,045.5,0.434,740.6,01.18,0.508
2016-11-16 03:26:00,1576E-3,5C000000,-0724,0831,12082,030.0,045.5,0.433,740.5,01.18,0.508
2016-11-16 03:27:00,1557E-3,5C000000,-0724,0829,12116,030.0,045.5,0.434,740.6,01.18,0.508
2016-11-16 03:28:00,1586E-3,5C000000,-0724,0830,12326,030.0,045.5,0.434,740.6,01.18,0.508
2016-11-16 03:29:00,1595E-3,5C000000,-0724,0831,11076,030.0,045.5,0.433,740.5,01.18,0.508
2016-11-16 03:30:00,1484E-3,5C000000,-0724,0831,11113,030.0,045.5,0.434,740.6,01.18,0.508
2016-11-16 03:31:00,1471E-3,5C000000,-0724,0830,12185,030.0,045.5,0.434,740.6,01.18,0.508
2016-11-16 03:32:00,1504E-3,5C000000,-0724,0833,12084,030.0,045.5,0.433,740.5,01.18,0.508
2016-11-16 03:33:00,1477E-3,5C000000,-0724,0829,12158,030.0,045.5,0.434,740.4,01.18,0.508
2016-11-16 03:34:00,1466E-3,5C000000,-0724,0831,11130,030.0,045.5,0.434,740.4,01.18,0.508
2016-11-16 03:35:00,1519E-3,5C000000,-0724,0829,12464,030.0,045.5,0.433,740.3,01.18,0.508
2016-11-16 03:36:00,1617E-3,5C000000,-0724,0829,11994,030.0,045.5,0.434,740.2,01.18,0.508
2016-11-16 03:37:00,1531E-3,5C000000,-0724,0829,12279,030.0,045.5,0.434,740.3,01.18,0.508
2016-11-16 03:38:00,1604E-3,5C000000,-0724,0829,12232,030.0,045.5,0.434,740.3,01.18,0.508
2016-11-16 03:39:00,1617E-3,5C000000,-0724,0830,11210,030.0,045.5,0.433,740.5,01.18,0.508
2016-11-16 03:40:00,1581E-3,5C000000,-0724,0831,10942,030.0,045.5,0.434,740.3,01.18,0.508
2016-11-16 03:41:00,1555E-3,5C000010,-0724,0830,12457,030.0,045.5,0.434,740.6,01.18,0.508
2016-11-16 03:42:00,1520E-3,5C000000,-0724,0834,12309,030.0,045.5,0.433,740.3,01.18,0.508
2016-11-16 03:43:00,1572E-3,5C000000,-0724,0832,12671,030.0,045.5,0.434,740.5,01.18,0.508
2016-11-16 03:44:00,1458E-3,5C000000,-0724,0831,12172,030.0,045.5,0.434,740.5,01.18,0.508
2016-11-16 03:45:00,1467E-3,5C000000,-0724,0832,12343,030.0,045.5,0.433,740.5,01.18,0.508
2016-11-16 03:46:00,1570E-3,5C000000,-0724,0832,12248,030.0,045.5,0.434,740.5,01.18,0.508
2016-11-16 03:47:00,1515E-3,5C000000,-0724,0830,12032,030.0,045.5,0.433,740.1,01.18,0.508
2016-11-16 03:48:00,1557E-3,5C000000,-0724,0830,12246,030.0,045.5,0.434,740.0,01.18,0.508
2016-11-16 03:49:00,1588E-3,5C000000,-0724,0830,12127,030.0,045.5,0.434,740.1,01.18,0.508
2016-11-16 03:50:00,1505E-3,5C000000,-0724,0831,12274,030.0,045.5,0.433,740.0,01.18,0.508
2016-11-16 03:51:00,1640E-3,5C000000,-0724,0831,12286,030.0,045.5,0.434,740.1,01.18,0.508
2016-11-16 03:52:00,1580E-3,5C000000,-0724,0831,12073,030.0,045.5,0.434,740.1,01.18,0.508
2016-11-16 03:53:00,1476E-3,5C000000,-0724,0839,11357,030.0,045.5,0.433,740.0,01.18,0.508
2016-11-16 03:54:00,1363E-3,5C000000,-0724,0837,10191,030.0,045.5,0.433,739.9,01.18,0.508
2016-11-16 03:55:00,1570E-3,5C000000,-0724,0835,9979,030.0,045.5,0.434,739.9,01.18,0.508
2016-11-16 03:56:00,1577E-3,5C000000,-0724,0834,12499,030.0,045.5,0.433,739.9,01.18,0.508
2016-11-16 03:57:00,1551E-3,5C000000,-0724,0834,11375,030.0,045.5,0.434,740.0,01.18,0.508
2016-11-16 03:58:00,1442E-3,5C000000,-0724,0831,12354,030.0,045.5,0.433,739.9,01.18,0.508
2016-11-16 03:59:00,1547E-3,5C000000,-0724,0830,12361,030.0,045.5,0.433,739.9,01.18,0.508
2016-11-16 04:00:00,1514E-3,5C000000,-0724,0831,12320,030.0,045.5,0.434,739.9,01.18,0.508
2016-11-16 04:01:00,1556E-3,5C000000,-0724,0831,12224,030.0,045.5,0.433,739.9,01.18,0.508
2016-11-16 04:02:00,1483E-3,5C000000,-0724,0831,12378,030.0,045.5,0.434,739.9,01.18,0.508
2016-11-16 04:03:00,1497E-3,5C000000,-0724,0831,12267,030.0,045.5,0.434,740.0,01.18,0.508
2016-11-16 04:04:00,1539E-3,5C000000,-0724,0832,12047,030.0,045.5,0.433,739.9,01.18,0.508
2016-11-16 04:05:00,1527E-3,5C000000,-0724,0831,12116,030.0,045.5,0.434,739.9,01.18,0.508
2016-11-16 04:06:00,1635E-3,5C000000,-0724,0830,12182,030.0,045.5,0.434,739.9,01.18,0.508
2016-11-16 04:07:00,1444E-3,5C000000,-0724,0830,12128,030.0,045.5,0.433,739.9,01.18,0.508
2016-11-16 04:08:00,1737E-3,5C000000,-0724,0831,12115,030.0,045.5,0.434,739.9,01.18,0.508
2016-11-16 04:09:00,1557E-3,5C000000,-0724,0830,12178,030.1,045.5,0.433,739.9,01.18,0.508
2016-11-16 04:10:00,1556E-3,5C000000,-0724,0833,11109,030.0,045.5,0.433,739.9,01.18,0.508
2016-11-16 04:11:00,1468E-3,5C000000,-0724,0832,12209,030.0,045.5,0.434,740.0,01.18,0.508
2016-11-16 04:12:00,1717E-3,5C000000,-0724,0831,12260,030.0,045.5,0.433,739.9,01.18,0.508
2016-11-16 04:13:00,1480E-3,5C000000,-0724,0831,12177,030.0,045.5,0.434,740.0,01.18,0.508
2016-11-16 04:14:00,1475E-3,5C000000,-0724,0834,12364,030.0,045.5,0.434,740.1,01.18,0.508
2016-11-16 04:15:00,1514E-3,5C000000,-0724,0834,12416,030.0,045.5,0.433,740.0,01.18,0.508
2016-11-16 04:16:00,1554E-3,5C000000,-0724,0832,12316,030.0,045.5,0.434,739.9,01.18,0.508
2016-11-16 04:17:00,1668E-3,5C000000,-0724,0831,12170,030.0,045.5,0.434,739.9,01.18,0.508
2016-11-16 04:18:00,1526E-3,5C000000,-0724,0830,12041,030.0,045.5,0.433,740.0,01.18,0.508
2016-11-16 04:19:00,1574E-3,5C000000,-0724,0831,12135,030.1,045.5,0.434,739.9,01.18,0.508
2016-11-16 04:20:00,1428E-3,5C000000,-0724,0830,12134,030.1,045.5,0.433,740.0,01.18,0.508